,,,PA_Meas_PMT16A,,PR_Meas_QMR101_102,,RH_Meas_QMH101,,SR_Meas_QMS101,,TA_Meas_QMH101,,GenWind,,GenWind,
date,time,status,PA,status,PR,status,RH,status,SR,status,TA,status,DirAvg,status,SpdAvg,
2011-12-03, 00:00:04,VALID,997.107,VALID,0,VALID,92.0971,VALID,0,VALID,23.4671,VALID,125,VALID,0.0375,
2011-12-03, 00:01:04,VALID,997.12,VALID,0,VALID,92.12,VALID,0,VALID,23.428,VALID,125,VALID,0.0957031,
2011-12-03, 00:02:04,VALID,997.087,VALID,0,VALID,92.1429,VALID,0,VALID,23.389,VALID,101,VALID,0.873438,
2011-12-03, 00:03:04,VALID,997.132,VALID,0,VALID,92.1048,VALID,0,VALID,23.389,VALID,101,VALID,0.619922,
2011-12-03, 00:04:04,VALID,997.141,VALID,0,VALID,92.0361,VALID,0,VALID,23.3695,VALID,101,VALID,0.544531,
2011-12-03, 00:05:04,VALID,997.149,VALID,0,VALID,92.0132,VALID,0,VALID,23.3695,VALID,101,VALID,0.454688,
2011-12-03, 00:06:04,VALID,997.112,VALID,0,VALID,92.0209,VALID,0,VALID,23.3695,VALID,101,VALID,0.510547,
2011-12-03, 00:07:04,VALID,997.147,VALID,0,VALID,92.0285,VALID,0,VALID,23.3482,VALID,101,VALID,0.541797,
2011-12-03, 00:08:04,VALID,997.127,VALID,0,VALID,92.0361,VALID,0,VALID,23.3695,VALID,101,VALID,0.289453,
2011-12-03, 00:09:04,VALID,997.13,VALID,0,VALID,91.998,VALID,0,VALID,23.3695,VALID,101,VALID,0.4375,
2011-12-03, 00:10:04,VALID,997.095,VALID,0,VALID,91.9674,VALID,0,VALID,23.3695,VALID,101,VALID,0.330078,
2011-12-03, 00:11:04,VALID,997.104,VALID,0,VALID,91.9522,VALID,0,VALID,23.3695,VALID,101,VALID,0.420703,
2011-12-03, 00:12:04,VALID,997.111,VALID,0,VALID,91.9445,VALID,0,VALID,23.389,VALID,101,VALID,0.450391,
2011-12-03, 00:13:04,VALID,997.103,VALID,0,VALID,91.9217,VALID,0,VALID,23.3695,VALID,101,VALID,0.501172,
2011-12-03, 00:14:04,VALID,997.102,VALID,0,VALID,91.8606,VALID,0,VALID,23.3695,VALID,101,VALID,0.248047,
2011-12-03, 00:15:04,VALID,997.091,VALID,0,VALID,91.8377,VALID,0,VALID,23.35,VALID,101,VALID,0.261719,
2011-12-03, 00:16:04,VALID,997.066,VALID,0,VALID,91.7462,VALID,0,VALID,23.2897,VALID,101,VALID,0.333594,
2011-12-03, 00:17:04,VALID,997.037,VALID,0,VALID,91.792,VALID,0,VALID,23.2897,VALID,101,VALID,0.404687,
2011-12-03, 00:18:04,VALID,997.059,VALID,0,VALID,91.853,VALID,0,VALID,23.2915,VALID,101,VALID,0.496484,
2011-12-03, 00:19:04,VALID,997.005,VALID,0,VALID,91.8759,VALID,0,VALID,23.2915,VALID,86,VALID,0.736719,
2011-12-03, 00:20:04,VALID,997.029,VALID,0,VALID,91.8759,VALID,0,VALID,23.311,VALID,86,VALID,0.5875,
2011-12-03, 00:21:04,VALID,996.981,VALID,0,VALID,91.8225,VALID,0,VALID,23.3305,VALID,86,VALID,0.578125,
2011-12-03, 00:22:04,VALID,996.974,VALID,0,VALID,91.7385,VALID,0,VALID,23.3305,VALID,86,VALID,0.608984,
2011-12-03, 00:23:04,VALID,996.961,VALID,0,VALID,91.7004,VALID,0,VALID,23.35,VALID,86,VALID,0.658203,
2011-12-03, 00:24:04,VALID,996.964,VALID,0,VALID,91.6241,VALID,0,VALID,23.389,VALID,86,VALID,0.480859,
2011-12-03, 00:25:04,VALID,996.951,VALID,0,VALID,91.586,VALID,0,VALID,23.3482,VALID,86,VALID,0.496094,
2011-12-03, 00:26:04,VALID,996.898,VALID,0,VALID,91.6088,VALID,0,VALID,23.35,VALID,86,VALID,0.404687,
2011-12-03, 00:27:04,VALID,996.898,VALID,0,VALID,91.586,VALID,0,VALID,23.3695,VALID,86,VALID,0.259766,
2011-12-03, 00:28:04,VALID,996.875,VALID,0,VALID,91.4944,VALID,0,VALID,23.35,VALID,86,VALID,0.254297,
2011-12-03, 00:29:04,VALID,996.864,VALID,0,VALID,91.6088,VALID,0,VALID,23.35,VALID,86,VALID,0.425,
2011-12-03, 00:30:04,VALID,996.875,VALID,0,VALID,91.6775,VALID,0,VALID,23.3305,VALID,86,VALID,0.367969,
2011-12-03, 00:31:04,VALID,996.867,VALID,0,VALID,91.6394,VALID,0,VALID,23.311,VALID,86,VALID,0.398438,
2011-12-03, 00:32:04,VALID,996.836,VALID,0,VALID,91.7996,VALID,0,VALID,23.2915,VALID,72,VALID,0.833984,
2011-12-03, 00:33:04,VALID,996.826,VALID,0,VALID,91.9064,VALID,0,VALID,23.2719,VALID,80,VALID,0.400391,
2011-12-03, 00:34:04,VALID,996.778,VALID,0,VALID,92.0666,VALID,0,VALID,23.2312,VALID,78,VALID,0.585156,
2011-12-03, 00:35:04,VALID,996.784,VALID,0,VALID,92.3489,VALID,0,VALID,23.2524,VALID,78,VALID,0.623828,
2011-12-03, 00:36:04,VALID,996.759,VALID,0,VALID,92.6541,VALID,0,VALID,23.2134,VALID,78,VALID,0.592578,
2011-12-03, 00:37:04,VALID,996.751,VALID,0,VALID,92.7762,VALID,0,VALID,23.1726,VALID,78,VALID,0.446875,
2011-12-03, 00:38:04,VALID,996.731,VALID,0,VALID,92.883,VALID,0,VALID,23.1336,VALID,78,VALID,0.620703,
2011-12-03, 00:39:04,VALID,996.749,VALID,0,VALID,92.9211,VALID,0,VALID,23.0946,VALID,57,VALID,0.807031,
2011-12-03, 00:40:04,VALID,996.73,VALID,0,VALID,92.9517,VALID,0,VALID,23.0361,VALID,54,VALID,0.707031,
2011-12-03, 00:41:04,VALID,996.741,VALID,0,VALID,92.9059,VALID,0,VALID,22.9776,VALID,54,VALID,0.678906,
2011-12-03, 00:42:04,VALID,996.735,VALID,0,VALID,92.9593,VALID,0,VALID,22.9385,VALID,54,VALID,0.480469,
2011-12-03, 00:43:04,VALID,996.717,VALID,0,VALID,93.0356,VALID,0,VALID,22.8995,VALID,54,VALID,0.614062,
2011-12-03, 00:44:04,VALID,996.714,VALID,0,VALID,93.1043,VALID,0,VALID,22.8605,VALID,54,VALID,0.506641,
2011-12-03, 00:45:04,VALID,996.697,VALID,0,VALID,93.1958,VALID,0,VALID,22.8605,VALID,54,VALID,0.546875,
2011-12-03, 00:46:04,VALID,996.697,VALID,0,VALID,93.3026,VALID,0,VALID,22.8623,VALID,54,VALID,0.460938,
2011-12-03, 00:47:04,VALID,996.688,VALID,0,VALID,93.4094,VALID,0,VALID,22.8427,VALID,54,VALID,0.454297,
2011-12-03, 00:48:04,VALID,996.657,VALID,0,VALID,93.4323,VALID,0,VALID,22.8215,VALID,54,VALID,0.467578,
2011-12-03, 00:49:04,VALID,996.659,VALID,0,VALID,93.5239,VALID,0,VALID,22.8427,VALID,54,VALID,0.496875,
2011-12-03, 00:50:04,VALID,996.614,VALID,0,VALID,93.6002,VALID,0,VALID,22.8427,VALID,54,VALID,0.567578,
2011-12-03, 00:51:04,VALID,996.607,VALID,0,VALID,93.6688,VALID,0,VALID,22.8427,VALID,54,VALID,0.849609,
2011-12-03, 00:52:04,VALID,996.607,VALID,0,VALID,93.7299,VALID,0,VALID,22.8818,VALID,54,VALID,0.924609,
2011-12-03, 00:53:04,VALID,996.591,VALID,0,VALID,93.7833,VALID,0,VALID,22.8818,VALID,54,VALID,0.898047,
2011-12-03, 00:54:04,VALID,996.555,VALID,0,VALID,93.8291,VALID,0,VALID,22.8995,VALID,54,VALID,0.999219,
2011-12-03, 00:55:04,VALID,996.525,VALID,0,VALID,93.8443,VALID,0,VALID,22.9403,VALID,54,VALID,0.852734,
2011-12-03, 00:56:04,VALID,996.518,VALID,0,VALID,93.8367,VALID,0,VALID,22.9385,VALID,54,VALID,0.678125,
2011-12-03, 00:57:04,VALID,996.484,VALID,0,VALID,93.8596,VALID,0,VALID,22.9385,VALID,54,VALID,0.644531,
2011-12-03, 00:58:04,VALID,996.506,VALID,0,VALID,93.8748,VALID,0,VALID,22.9403,VALID,54,VALID,0.50625,
2011-12-03, 00:59:04,VALID,996.49,VALID,0,VALID,93.852,VALID,0,VALID,22.9403,VALID,54,VALID,0.255859,
2011-12-03, 01:00:04,VALID,996.489,VALID,0,VALID,93.8291,VALID,0,VALID,22.919,VALID,54,VALID,0.229297,
2011-12-03, 01:01:04,VALID,996.471,VALID,0,VALID,93.8138,VALID,0,VALID,22.9385,VALID,54,VALID,0,
2011-12-03, 01:02:04,VALID,996.478,VALID,0,VALID,93.852,VALID,0,VALID,22.9385,VALID,54,VALID,0,
2011-12-03, 01:03:04,VALID,996.453,VALID,0,VALID,93.8367,VALID,0,VALID,22.9793,VALID,54,VALID,0,
2011-12-03, 01:04:04,VALID,996.448,VALID,0,VALID,93.852,VALID,0,VALID,22.9776,VALID,125,VALID,0.716016,
2011-12-03, 01:05:04,VALID,996.397,VALID,0,VALID,93.8596,VALID,0,VALID,22.9971,VALID,125,VALID,0.364062,
2011-12-03, 01:06:04,VALID,996.359,VALID,0,VALID,93.8367,VALID,0,VALID,23.0183,VALID,125,VALID,0.268359,
2011-12-03, 01:07:04,VALID,996.349,VALID,0,VALID,93.8291,VALID,0,VALID,23.0166,VALID,125,VALID,0.09375,
2011-12-03, 01:08:04,VALID,996.329,VALID,0,VALID,93.8138,VALID,0,VALID,23.0166,VALID,125,VALID,0,
2011-12-03, 01:09:04,VALID,996.307,VALID,0,VALID,93.7909,VALID,0,VALID,23.0378,VALID,125,VALID,0.271094,
2011-12-03, 01:10:04,VALID,996.265,VALID,0,VALID,93.768,VALID,0,VALID,23.0378,VALID,125,VALID,0.353906,
2011-12-03, 01:11:04,VALID,996.268,VALID,0,VALID,93.7604,VALID,0,VALID,23.0361,VALID,125,VALID,0.405859,
2011-12-03, 01:12:04,VALID,996.246,VALID,0,VALID,93.7757,VALID,0,VALID,23.0361,VALID,125,VALID,0.569922,
2011-12-03, 01:13:04,VALID,996.259,VALID,0,VALID,93.7757,VALID,0,VALID,23.0556,VALID,125,VALID,0.708203,
2011-12-03, 01:14:04,VALID,996.244,VALID,0,VALID,93.7604,VALID,0,VALID,23.0946,VALID,125,VALID,0.730859,
2011-12-03, 01:15:04,VALID,996.246,VALID,0,VALID,93.7604,VALID,0,VALID,23.1336,VALID,125,VALID,0.736328,
2011-12-03, 01:16:04,VALID,996.289,VALID,0,VALID,93.7299,VALID,0,VALID,23.1549,VALID,113,VALID,0.644922,
2011-12-03, 01:17:04,VALID,996.302,VALID,0,VALID,93.6231,VALID,0,VALID,23.1354,VALID,88,VALID,0.327344,
2011-12-03, 01:18:04,VALID,996.3,VALID,0,VALID,93.4934,VALID,0,VALID,23.0769,VALID,88,VALID,0.278906,
2011-12-03, 01:19:04,VALID,996.31,VALID,0,VALID,93.3255,VALID,0,VALID,22.9988,VALID,88,VALID,0.353125,
2011-12-03, 01:20:04,VALID,996.322,VALID,0,VALID,93.295,VALID,0,VALID,22.9811,VALID,88,VALID,0.2875,
2011-12-03, 01:21:04,VALID,996.322,VALID,0,VALID,93.3103,VALID,0,VALID,22.9208,VALID,88,VALID,0.185156,
2011-12-03, 01:22:04,VALID,996.318,VALID,0,VALID,93.3179,VALID,0,VALID,22.8818,VALID,88,VALID,0,
2011-12-03, 01:23:04,VALID,996.286,VALID,0,VALID,93.4018,VALID,0,VALID,22.8818,VALID,88,VALID,0,
2011-12-03, 01:24:04,VALID,996.271,VALID,0,VALID,93.5239,VALID,0,VALID,22.8995,VALID,88,VALID,0,
2011-12-03, 01:25:04,VALID,996.269,VALID,0,VALID,93.6231,VALID,0,VALID,22.9385,VALID,88,VALID,0,
2011-12-03, 01:26:04,VALID,996.244,VALID,0,VALID,93.6688,VALID,0,VALID,22.9403,VALID,88,VALID,0,
2011-12-03, 01:27:04,VALID,996.224,VALID,0,VALID,93.6383,VALID,0,VALID,22.8605,VALID,88,VALID,0,
2011-12-03, 01:28:04,VALID,996.236,VALID,0,VALID,93.6688,VALID,0,VALID,22.8215,VALID,88,VALID,0,
2011-12-03, 01:29:04,VALID,996.222,VALID,0,VALID,93.6841,VALID,0,VALID,22.8427,VALID,88,VALID,0,
2011-12-03, 01:30:04,VALID,996.206,VALID,0,VALID,93.707,VALID,0,VALID,22.8232,VALID,88,VALID,0,
2011-12-03, 01:31:04,VALID,996.168,VALID,0,VALID,93.7528,VALID,0,VALID,22.8037,VALID,88,VALID,0,
2011-12-03, 01:32:04,VALID,996.185,VALID,0,VALID,93.8138,VALID,0,VALID,22.763,VALID,88,VALID,0,
2011-12-03, 01:33:04,VALID,996.169,VALID,0,VALID,93.8443,VALID,0,VALID,22.8037,VALID,88,VALID,0,
2011-12-03, 01:34:04,VALID,996.18,VALID,0,VALID,93.8977,VALID,0,VALID,22.8037,VALID,88,VALID,0,
2011-12-03, 01:35:04,VALID,996.166,VALID,0,VALID,93.9511,VALID,0,VALID,22.8215,VALID,88,VALID,0,
2011-12-03, 01:36:04,VALID,996.151,VALID,0,VALID,93.9969,VALID,0,VALID,22.8818,VALID,113,VALID,0.775781,
2011-12-03, 01:37:04,VALID,996.172,VALID,0,VALID,94.0122,VALID,0,VALID,22.8995,VALID,113,VALID,0.630859,
2011-12-03, 01:38:04,VALID,996.147,VALID,0,VALID,94.0198,VALID,0,VALID,22.9793,VALID,113,VALID,0.411328,
2011-12-03, 01:39:04,VALID,996.166,VALID,0,VALID,94.0351,VALID,0,VALID,22.9776,VALID,112,VALID,0.374609,
2011-12-03, 01:40:04,VALID,996.173,VALID,0,VALID,94.0351,VALID,0,VALID,23.0378,VALID,112,VALID,0.265625,
2011-12-03, 01:41:04,VALID,996.171,VALID,0,VALID,94.0198,VALID,0,VALID,23.0361,VALID,112,VALID,0.294141,
2011-12-03, 01:42:04,VALID,996.151,VALID,0,VALID,94.0045,VALID,0,VALID,23.0573,VALID,112,VALID,0.232031,
2011-12-03, 01:43:04,VALID,996.151,VALID,0,VALID,93.9359,VALID,0,VALID,23.0361,VALID,112,VALID,0.333984,
2011-12-03, 01:44:04,VALID,996.092,VALID,0,VALID,93.8901,VALID,0,VALID,23.0378,VALID,112,VALID,0.333203,
2011-12-03, 01:45:04,VALID,996.098,VALID,0,VALID,93.8367,VALID,0,VALID,23.0361,VALID,112,VALID,0.270312,
2011-12-03, 01:46:04,VALID,996.075,VALID,0,VALID,93.7528,VALID,0,VALID,23.0166,VALID,112,VALID,0.339063,
2011-12-03, 01:47:04,VALID,996.075,VALID,0,VALID,93.707,VALID,0,VALID,23.0166,VALID,112,VALID,0.663672,
2011-12-03, 01:48:04,VALID,996.065,VALID,0,VALID,93.6765,VALID,0,VALID,23.0556,VALID,99,VALID,0.866406,
2011-12-03, 01:49:04,VALID,996.057,VALID,0,VALID,93.6078,VALID,0,VALID,23.0751,VALID,107,VALID,0.557813,
2011-12-03, 01:50:04,VALID,996.047,VALID,0,VALID,93.4934,VALID,0,VALID,23.0964,VALID,111,VALID,0.775,
2011-12-03, 01:51:04,VALID,996.037,VALID,0,VALID,93.3942,VALID,0,VALID,23.0751,VALID,114,VALID,0.413672,
2011-12-03, 01:52:04,VALID,996.047,VALID,0,VALID,93.2568,VALID,0,VALID,23.0769,VALID,114,VALID,0.569531,
2011-12-03, 01:53:04,VALID,996.084,VALID,0,VALID,93.1577,VALID,0,VALID,23.0573,VALID,114,VALID,0.494141,
2011-12-03, 01:54:04,VALID,996.064,VALID,0,VALID,93.1271,VALID,0,VALID,23.0573,VALID,114,VALID,0.615234,
2011-12-03, 01:55:04,VALID,996.061,VALID,0,VALID,93.1348,VALID,0,VALID,23.0556,VALID,114,VALID,0.64375,
2011-12-03, 01:56:04,VALID,996.039,VALID,0,VALID,93.1348,VALID,0,VALID,23.0751,VALID,114,VALID,0.583984,
2011-12-03, 01:57:04,VALID,996.02,VALID,0,VALID,93.089,VALID,0,VALID,23.0964,VALID,114,VALID,0.549219,
2011-12-03, 01:58:04,VALID,995.999,VALID,0,VALID,93.0508,VALID,0,VALID,23.1159,VALID,114,VALID,0.434375,
2011-12-03, 01:59:04,VALID,995.972,VALID,0,VALID,93.028,VALID,0,VALID,23.0946,VALID,114,VALID,0.440625,
2011-12-03, 02:00:04,VALID,995.969,VALID,0,VALID,92.9593,VALID,0,VALID,23.1159,VALID,113,VALID,0.621875,
2011-12-03, 02:01:04,VALID,995.943,VALID,0,VALID,92.9211,VALID,0,VALID,23.1159,VALID,113,VALID,0.692578,
2011-12-03, 02:02:04,VALID,995.942,VALID,0,VALID,92.8677,VALID,0,VALID,23.1159,VALID,81,VALID,1.01328,
2011-12-03, 02:03:04,VALID,995.969,VALID,0,VALID,92.7838,VALID,0,VALID,23.1354,VALID,69,VALID,0.872656,
2011-12-03, 02:04:04,VALID,995.909,VALID,0,VALID,92.7533,VALID,0,VALID,23.1549,VALID,69,VALID,0.807422,
2011-12-03, 02:05:04,VALID,995.95,VALID,0,VALID,92.8067,VALID,0,VALID,23.1744,VALID,64,VALID,0.767187,
2011-12-03, 02:06:04,VALID,995.972,VALID,0,VALID,92.8525,VALID,0,VALID,23.1549,VALID,64,VALID,0.646875,
2011-12-03, 02:07:04,VALID,995.955,VALID,0,VALID,92.944,VALID,0,VALID,23.1549,VALID,64,VALID,0.592969,
2011-12-03, 02:08:04,VALID,995.962,VALID,0,VALID,93.0585,VALID,0,VALID,23.1549,VALID,64,VALID,0.595703,
2011-12-03, 02:09:04,VALID,995.954,VALID,0,VALID,93.0356,VALID,0,VALID,23.1159,VALID,64,VALID,0.546094,
2011-12-03, 02:10:04,VALID,995.935,VALID,0,VALID,92.9974,VALID,0,VALID,23.0573,VALID,64,VALID,0.0957031,
2011-12-03, 02:11:04,VALID,995.944,VALID,0,VALID,93.0356,VALID,0,VALID,23.0183,VALID,64,VALID,0.273047,
2011-12-03, 02:12:04,VALID,995.898,VALID,0,VALID,93.1119,VALID,0,VALID,22.9988,VALID,64,VALID,0,
2011-12-03, 02:13:04,VALID,995.904,VALID,0,VALID,93.2034,VALID,0,VALID,22.9793,VALID,64,VALID,0,
2011-12-03, 02:14:04,VALID,995.883,VALID,0,VALID,93.295,VALID,0,VALID,22.9581,VALID,64,VALID,0,
2011-12-03, 02:15:04,VALID,995.883,VALID,0,VALID,93.3789,VALID,0,VALID,22.9793,VALID,64,VALID,0,
2011-12-03, 02:16:04,VALID,995.879,VALID,0,VALID,93.4171,VALID,0,VALID,22.9598,VALID,64,VALID,0,
2011-12-03, 02:17:04,VALID,995.902,VALID,0,VALID,93.4476,VALID,0,VALID,22.9793,VALID,64,VALID,0,
2011-12-03, 02:18:04,VALID,995.901,VALID,0,VALID,93.4628,VALID,0,VALID,22.9793,VALID,64,VALID,0,
2011-12-03, 02:19:04,VALID,995.939,VALID,0,VALID,93.4705,VALID,0,VALID,22.9793,VALID,64,VALID,0,
2011-12-03, 02:20:04,VALID,995.94,VALID,0,VALID,93.44,VALID,0,VALID,22.9598,VALID,64,VALID,0,
2011-12-03, 02:21:04,VALID,995.921,VALID,0,VALID,93.4018,VALID,0,VALID,22.9598,VALID,64,VALID,0,
2011-12-03, 02:22:04,VALID,995.942,VALID,0,VALID,93.4018,VALID,0,VALID,22.9793,VALID,64,VALID,0,
2011-12-03, 02:23:04,VALID,995.932,VALID,0,VALID,93.3484,VALID,0,VALID,22.9581,VALID,64,VALID,0,
2011-12-03, 02:24:04,VALID,995.948,VALID,0,VALID,93.2874,VALID,0,VALID,22.9598,VALID,64,VALID,0,
2011-12-03, 02:25:04,VALID,995.967,VALID,0,VALID,93.2416,VALID,0,VALID,22.9403,VALID,64,VALID,0,
2011-12-03, 02:26:04,VALID,995.968,VALID,0,VALID,93.1882,VALID,0,VALID,22.9208,VALID,64,VALID,0,
2011-12-03, 02:27:04,VALID,996.001,VALID,0,VALID,93.1805,VALID,0,VALID,22.9013,VALID,64,VALID,0,
2011-12-03, 02:28:04,VALID,996.006,VALID,0,VALID,93.2416,VALID,0,VALID,22.88,VALID,64,VALID,0,
2011-12-03, 02:29:04,VALID,996.037,VALID,0,VALID,93.2797,VALID,0,VALID,22.88,VALID,64,VALID,0,
2011-12-03, 02:30:04,VALID,996.039,VALID,0,VALID,93.3179,VALID,0,VALID,22.9013,VALID,64,VALID,0,
2011-12-03, 02:31:04,VALID,996.043,VALID,0,VALID,93.3637,VALID,0,VALID,22.9013,VALID,64,VALID,0,
2011-12-03, 02:32:04,VALID,996.08,VALID,0,VALID,93.4171,VALID,0,VALID,22.9013,VALID,64,VALID,0,
2011-12-03, 02:33:04,VALID,996.086,VALID,0,VALID,93.4323,VALID,0,VALID,22.9208,VALID,84,VALID,0,
2011-12-03, 02:34:04,VALID,996.105,VALID,0,VALID,93.4018,VALID,0,VALID,22.9598,VALID,84,VALID,0,
2011-12-03, 02:35:04,VALID,996.116,VALID,0,VALID,93.3942,VALID,0,VALID,23.0183,VALID,104,VALID,0,
2011-12-03, 02:36:04,VALID,996.073,VALID,0,VALID,93.3331,VALID,0,VALID,23.0573,VALID,108,VALID,0,
2011-12-03, 02:37:04,VALID,996.083,VALID,0,VALID,93.2111,VALID,0,VALID,23.0769,VALID,109,VALID,0,
2011-12-03, 02:38:04,VALID,996.064,VALID,0,VALID,93.0508,VALID,0,VALID,23.0964,VALID,116,VALID,0.714063,
2011-12-03, 02:39:04,VALID,996.076,VALID,0,VALID,92.9593,VALID,0,VALID,23.0964,VALID,116,VALID,0.732422,
2011-12-03, 02:40:04,VALID,996.059,VALID,0,VALID,92.8983,VALID,0,VALID,23.1159,VALID,116,VALID,0.748828,
2011-12-03, 02:41:04,VALID,996.049,VALID,0,VALID,92.8372,VALID,0,VALID,23.1159,VALID,118,VALID,0.721875,
2011-12-03, 02:42:04,VALID,996.083,VALID,0,VALID,92.7533,VALID,0,VALID,23.0964,VALID,118,VALID,0.561328,
2011-12-03, 02:43:04,VALID,996.098,VALID,0,VALID,92.7075,VALID,0,VALID,23.0769,VALID,118,VALID,0.504297,
2011-12-03, 02:44:04,VALID,996.093,VALID,0,VALID,92.7228,VALID,0,VALID,23.0769,VALID,118,VALID,0.2875,
2011-12-03, 02:45:04,VALID,996.048,VALID,0,VALID,92.7762,VALID,0,VALID,23.0556,VALID,118,VALID,0.272266,
2011-12-03, 02:46:04,VALID,996.084,VALID,0,VALID,92.8525,VALID,0,VALID,23.0573,VALID,118,VALID,0.210547,
2011-12-03, 02:47:04,VALID,996.047,VALID,0,VALID,92.8906,VALID,0,VALID,23.0573,VALID,118,VALID,0.103906,
2011-12-03, 02:48:04,VALID,996.024,VALID,0,VALID,92.9211,VALID,0,VALID,23.0573,VALID,118,VALID,0,
2011-12-03, 02:49:04,VALID,996.065,VALID,0,VALID,92.9822,VALID,0,VALID,23.0378,VALID,118,VALID,0,
2011-12-03, 02:50:04,VALID,996.069,VALID,0,VALID,93.0661,VALID,0,VALID,22.9971,VALID,118,VALID,0.498437,
2011-12-03, 02:51:04,VALID,996.077,VALID,0,VALID,93.1348,VALID,0,VALID,23.0166,VALID,118,VALID,0.459766,
2011-12-03, 02:52:04,VALID,996.06,VALID,0,VALID,93.1577,VALID,0,VALID,23.0166,VALID,118,VALID,0.649609,
2011-12-03, 02:53:04,VALID,996.058,VALID,0,VALID,93.2187,VALID,0,VALID,23.0378,VALID,99,VALID,0.685156,
2011-12-03, 02:54:04,VALID,996.12,VALID,0,VALID,93.2034,VALID,0.104696,VALID,23.0573,VALID,94,VALID,0.914844,
2011-12-03, 02:55:04,VALID,996.128,VALID,0,VALID,93.1119,VALID,0,VALID,23.0378,VALID,94,VALID,1.02031,
2011-12-03, 02:56:04,VALID,996.106,VALID,0,VALID,93.028,VALID,0,VALID,23.0378,VALID,97,VALID,1.27773,
2011-12-03, 02:57:04,VALID,996.128,VALID,0,VALID,92.9593,VALID,0,VALID,23.0378,VALID,98,VALID,1.24023,
2011-12-03, 02:58:04,VALID,996.122,VALID,0,VALID,92.9364,VALID,0,VALID,23.0361,VALID,101,VALID,1.08086,
2011-12-03, 02:59:04,VALID,996.133,VALID,0,VALID,92.8983,VALID,0,VALID,23.0573,VALID,101,VALID,0.834766,
2011-12-03, 03:00:04,VALID,996.107,VALID,0,VALID,92.8906,VALID,0,VALID,23.0573,VALID,101,VALID,0.825391,
2011-12-03, 03:01:04,VALID,996.12,VALID,0,VALID,92.9593,VALID,0,VALID,23.0361,VALID,101,VALID,0.771094,
2011-12-03, 03:02:04,VALID,996.091,VALID,0,VALID,92.9745,VALID,0,VALID,23.0556,VALID,85,VALID,0.670703,
2011-12-03, 03:03:04,VALID,996.107,VALID,0,VALID,92.9211,VALID,0,VALID,23.0361,VALID,72,VALID,0.638281,
2011-12-03, 03:04:04,VALID,996.074,VALID,0,VALID,92.883,VALID,0,VALID,23.0166,VALID,72,VALID,0.494922,
2011-12-03, 03:05:04,VALID,996.076,VALID,0,VALID,92.7991,VALID,0,VALID,22.9971,VALID,72,VALID,0.514063,
2011-12-03, 03:06:04,VALID,996.081,VALID,0,VALID,92.6846,VALID,0,VALID,22.9581,VALID,72,VALID,0.29375,
2011-12-03, 03:07:04,VALID,996.049,VALID,0,VALID,92.6083,VALID,0,VALID,22.9598,VALID,72,VALID,0.00585938,
2011-12-03, 03:08:04,VALID,996.061,VALID,0,VALID,92.5778,VALID,0,VALID,22.9403,VALID,72,VALID,0,
2011-12-03, 03:09:04,VALID,996.087,VALID,0,VALID,92.6694,VALID,0,VALID,22.9403,VALID,72,VALID,0,
2011-12-03, 03:10:04,VALID,996.071,VALID,0,VALID,92.7304,VALID,0,VALID,22.9403,VALID,72,VALID,0,
2011-12-03, 03:11:04,VALID,996.117,VALID,0,VALID,92.822,VALID,0,VALID,22.919,VALID,72,VALID,0,
2011-12-03, 03:12:04,VALID,996.169,VALID,0,VALID,92.8983,VALID,0,VALID,22.9403,VALID,72,VALID,0.342969,
2011-12-03, 03:13:04,VALID,996.179,VALID,0,VALID,92.944,VALID,0,VALID,22.9598,VALID,72,VALID,0.619141,
2011-12-03, 03:14:04,VALID,996.173,VALID,0,VALID,92.8067,VALID,0,VALID,22.9208,VALID,72,VALID,0.46875,
2011-12-03, 03:15:04,VALID,996.19,VALID,0,VALID,92.7609,VALID,0,VALID,22.9013,VALID,72,VALID,0.528906,
2011-12-03, 03:16:04,VALID,996.191,VALID,0,VALID,92.822,VALID,0,VALID,22.841,VALID,72,VALID,0.505469,
2011-12-03, 03:17:04,VALID,996.22,VALID,0,VALID,92.9364,VALID,0,VALID,22.8232,VALID,72,VALID,0.535937,
2011-12-03, 03:18:04,VALID,996.196,VALID,0,VALID,93.1271,VALID,0,VALID,22.802,VALID,72,VALID,0.518359,
2011-12-03, 03:19:04,VALID,996.215,VALID,0,VALID,93.2416,VALID,0.104696,VALID,22.763,VALID,72,VALID,0.576953,
2011-12-03, 03:20:04,VALID,996.209,VALID,0,VALID,93.2568,VALID,0,VALID,22.724,VALID,72,VALID,0.692187,
2011-12-03, 03:21:04,VALID,996.227,VALID,0,VALID,93.3255,VALID,0,VALID,22.7062,VALID,72,VALID,0.753516,
2011-12-03, 03:22:04,VALID,996.203,VALID,0,VALID,93.3637,VALID,0,VALID,22.6867,VALID,72,VALID,0.400781,
2011-12-03, 03:23:04,VALID,996.196,VALID,0,VALID,93.4171,VALID,0,VALID,22.6264,VALID,72,VALID,0.397656,
2011-12-03, 03:24:04,VALID,996.201,VALID,0,VALID,93.4094,VALID,0,VALID,22.6299,VALID,72,VALID,0.245312,
2011-12-03, 03:25:04,VALID,996.154,VALID,0,VALID,93.4857,VALID,0,VALID,22.5892,VALID,72,VALID,0.266406,
2011-12-03, 03:26:04,VALID,996.193,VALID,0,VALID,93.4934,VALID,0,VALID,22.5714,VALID,72,VALID,0.0234375,
2011-12-03, 03:27:04,VALID,996.2,VALID,0,VALID,93.5086,VALID,0,VALID,22.5323,VALID,72,VALID,0.0765625,
2011-12-03, 03:28:04,VALID,996.186,VALID,0,VALID,93.5697,VALID,0,VALID,22.5111,VALID,72,VALID,0.0105469,
2011-12-03, 03:29:04,VALID,996.201,VALID,0,VALID,93.6307,VALID,0,VALID,22.5519,VALID,72,VALID,0,
2011-12-03, 03:30:04,VALID,996.189,VALID,0,VALID,93.6994,VALID,0,VALID,22.5519,VALID,72,VALID,0.164453,
2011-12-03, 03:31:04,VALID,996.174,VALID,0,VALID,93.768,VALID,0,VALID,22.5306,VALID,72,VALID,0.421484,
2011-12-03, 03:32:04,VALID,996.177,VALID,0,VALID,93.8443,VALID,0,VALID,22.5696,VALID,72,VALID,0.255078,
2011-12-03, 03:33:04,VALID,996.199,VALID,0,VALID,93.8901,VALID,0,VALID,22.6104,VALID,72,VALID,0.0164062,
2011-12-03, 03:34:04,VALID,996.224,VALID,0,VALID,93.9359,VALID,0,VALID,22.6087,VALID,72,VALID,0.18125,
2011-12-03, 03:35:04,VALID,996.223,VALID,0,VALID,93.9817,VALID,0,VALID,22.6494,VALID,72,VALID,0,
2011-12-03, 03:36:04,VALID,996.305,VALID,0,VALID,93.9817,VALID,0,VALID,22.6477,VALID,72,VALID,0,
2011-12-03, 03:37:04,VALID,996.286,VALID,0,VALID,94.0122,VALID,0,VALID,22.6672,VALID,72,VALID,0,
2011-12-03, 03:38:04,VALID,996.311,VALID,0,VALID,94.0351,VALID,0,VALID,22.6867,VALID,72,VALID,0.0871094,
2011-12-03, 03:39:04,VALID,996.318,VALID,0,VALID,94.0351,VALID,0,VALID,22.7062,VALID,72,VALID,0.344141,
2011-12-03, 03:40:04,VALID,996.323,VALID,0,VALID,94.0274,VALID,0,VALID,22.7257,VALID,48,VALID,0.749219,
2011-12-03, 03:41:04,VALID,996.349,VALID,0,VALID,94.0198,VALID,0,VALID,22.7257,VALID,28,VALID,0.739453,
2011-12-03, 03:42:04,VALID,996.349,VALID,0,VALID,93.9664,VALID,0,VALID,22.7062,VALID,28,VALID,0.573438,
2011-12-03, 03:43:04,VALID,996.351,VALID,0,VALID,93.9511,VALID,0,VALID,22.7452,VALID,28,VALID,0.344531,
2011-12-03, 03:44:04,VALID,996.33,VALID,0,VALID,93.9054,VALID,0,VALID,22.7647,VALID,28,VALID,0,
2011-12-03, 03:45:04,VALID,996.322,VALID,0,VALID,93.8825,VALID,0,VALID,22.7842,VALID,28,VALID,0.279297,
2011-12-03, 03:46:04,VALID,996.306,VALID,0,VALID,93.8443,VALID,0,VALID,22.7647,VALID,28,VALID,0.0601562,
2011-12-03, 03:47:04,VALID,996.287,VALID,0,VALID,93.8138,VALID,0,VALID,22.763,VALID,28,VALID,0.335547,
2011-12-03, 03:48:04,VALID,996.318,VALID,0,VALID,93.7451,VALID,0,VALID,22.8037,VALID,28,VALID,0.414063,
2011-12-03, 03:49:04,VALID,996.302,VALID,0,VALID,93.707,VALID,0,VALID,22.8232,VALID,28,VALID,0.532422,